Simultaneous Nadir Overpasses (SNOs) Predictions

Prediction of SNOs between GOES-17 and METOP-C Satellite Orbit:

Table of predicted SNOs for the next 14.0 days since TLE Epoch: 3/2/2024
Index Date Time (GOES-17) GOES-17 Lat,Lon METOP-C Lat,Lon Distance(km) Time Diff (sec)
1 03/02/2024 16:18:37 0.00,-104.69 -0.58,-102.02 304.49 80
2 03/04/2024 04:37:38 0.00,-104.69 -0.42,-106.62 220.69 80
3 03/05/2024 04:14:18 0.01,-104.68 0.69,-101.63 348.07 80
4 03/06/2024 16:33:10 -0.01,-104.69 0.34,-106.19 171.24 80
5 03/07/2024 16:15:10 -0.01,-104.69 -0.77,-101.19 397.79 80
6 03/09/2024 04:34:11 0.01,-104.68 -0.27,-105.79 126.96 80
7 03/10/2024 04:10:51 0.00,-104.68 0.85,-100.79 442.20 80
8 03/11/2024 16:29:43 -0.00,-104.69 0.13,-105.36 76.81 80
9 03/12/2024 16:11:44 -0.00,-104.69 -0.99,-100.37 492.57 80
10 03/14/2024 04:30:43 0.01,-104.68 -0.08,-104.96 31.79 80
